Overview Statistics Trail Chart Weather Telemetry Raw packets
 

This is the latest recevied weather packets stored in our database for station/object SV9TNF-55. If no packets are shown the sender has not sent any weather packets the latest 10 day(s).

<< 32 33 34 35 36 37 38 >>
Time Temp. Humidity Pressure Rain* Wind** Luminosity Snow
1788183432 25° C 53% 1014.3 hPa 0 mm 3.58 m/s, 337° - -
1788182831 25° C 50% 1014.2 hPa 0 mm 3.13 m/s, 337° - -
1788182231 25° C 50% 1014.2 hPa 0 mm 3.13 m/s, 337° - -
1788181630 25° C 52% 1014.4 hPa 0 mm 3.13 m/s, 337° - -
1788181030 25° C 54% 1014.7 hPa 0 mm 3.58 m/s, 337° - -
1788180430 25° C 54% 1014.7 hPa 0 mm 3.58 m/s, 337° - -
1788179830 25° C 54% 1014.7 hPa 0 mm 3.58 m/s, 337° - -
1788179230 25° C 54% 1014.7 hPa 0 mm 3.58 m/s, 337° - -
1788178637 25° C 54% 1014.7 hPa 0 mm 3.58 m/s, 337° - -
1788178030 25° C 54% 1014.7 hPa 0 mm 3.58 m/s, 337° - -
1788177429 25° C 54% 1015 hPa 0 mm 4.02 m/s, 337° - -
1788176829 25° C 50% 1015.1 hPa 0 mm 4.02 m/s, 337° - -
1788176230 25° C 50% 1015.1 hPa 0 mm 4.02 m/s, 337° - -
1788175630 25.56° C 47% 1015 hPa 0 mm 4.02 m/s, 337° - -
1788175030 25.56° C 43% 1015.3 hPa 0 mm 4.02 m/s, 337° - -
1788174430 25.56° C 43% 1015.3 hPa 0 mm 4.02 m/s, 337° - -
1788173829 25.56° C 43% 1015.3 hPa 0 mm 4.02 m/s, 337° - -
1788173229 25.56° C 43% 1015.3 hPa 0 mm 4.02 m/s, 337° - -
1788172629 25.56° C 42% 1015.2 hPa 0 mm 4.02 m/s, 315° - -
1788172041 25.56° C 42% 1015.3 hPa 0 mm 3.58 m/s, 315° - -
1788171429 25° C 43% 1015.5 hPa 0 mm 3.58 m/s, 315° - -
1788170828 25° C 45% 1015.5 hPa 0 mm 4.02 m/s, 292° - -
1788170228 25° C 45% 1015.5 hPa 0 mm 4.02 m/s, 292° - -
1788169628 25° C 46% 1015.7 hPa 0 mm 3.58 m/s, 292° - -
1788169028 25° C 46% 1015.6 hPa 0 mm 4.02 m/s, 292° - -

* Rain latest hour (hover to see other rain measurements)
** Current wind speed in m/s (hover to see current wind gust speed)